"Period start","avg(HW err(1)/warn(2) (#))","avg(Visibility (m))","avg(Weather code (#))","avg(Precip intensity (mm/h))","min(HW err(1)/warn(2) (#))","max(HW err(1)/warn(2) (#))","std(HW err(1)/warn(2) (#))","med(HW err(1)/warn(2) (#))","min(Visibility (m))","max(Visibility (m))","std(Visibility (m))","med(Visibility (m))","min(Weather code (#))","max(Weather code (#))","std(Weather code (#))","med(Weather code (#))","min(Precip intensity (mm/h))","max(Precip intensity (mm/h))","std(Precip intensity (mm/h))","med(Precip intensity (mm/h))"
2014-09-15 00:00:00,2,43512,0,0.00,2,2,0,2,33315,50000,6288,44827,0,0,0,0,0.00,0.00,0.00,0.00
2014-09-15 00:10:00,2,41218,0,0.00,2,2,0,2,23287,50000,8593,44243,0,0,0,0,0.00,0.00,0.00,0.00
2014-09-15 00:20:00,2,34651,0,0.00,2,2,0,2,27260,41083,4189,34192,0,0,0,0,0.00,0.00,0.00,0.00
2014-09-15 00:30:00,2,39633,0,0.00,2,2,0,2,25961,50000,8947,40520,0,0,0,0,0.00,0.00,0.00,0.00
2014-09-15 00:40:00,2,37523,0,0.00,2,2,0,2,25157,49918,7582,36652,0,0,0,0,0.00,0.00,0.00,0.00
2014-09-15 00:50:00,2,37028,0,0.00,2,2,0,2,20642,50000,9322,37755,0,0,0,0,0.00,0.00,0.00,0.00
2014-09-15 01:00:00,2,38576,0,0.00,2,2,0,2,30330,44181,3904,39349,0,0,0,0,0.00,0.00,0.00,0.00
2014-09-15 01:10:00,2,41550,0,0.00,2,2,0,2,31246,50000,5826,41274,0,0,0,0,0.00,0.00,0.00,0.00
2014-09-15 01:20:00,2,37787,0,0.00,2,2,0,2,24198,49941,8545,40057,0,0,0,0,0.00,0.00,0.00,0.00
2014-09-15 01:30:00,2,43308,0,0.00,0,2,1,2,33501,50000,6690,44338,0,0,0,0,0.00,0.00,0.00,0.00
2014-09-15 01:40:00,2,40516,0,0.00,0,2,1,2,30084,48597,5199,39901,0,0,0,0,0.00,0.00,0.00,0.00
2014-09-15 01:50:00,1,46873,0,0.00,0,2,1,0,36283,50000,4871,49942,0,0,0,0,0.00,0.00,0.00,0.00
2014-09-15 02:00:00,2,46288,0,0.00,0,2,1,2,38082,50000,4587,49348,0,0,0,0,0.00,0.00,0.00,0.00
2014-09-15 02:10:00,1,46821,0,0.00,0,2,1,0,39489,50000,3419,47941,0,0,0,0,0.00,0.00,0.00,0.00
2014-09-15 02:20:00,2,40266,0,0.00,2,2,0,2,35777,50000,4897,38043,0,0,0,0,0.00,0.00,0.00,0.00
2014-09-15 02:30:00,1,36823,0,0.00,0,2,1,0,24619,48462,6702,38964,0,0,0,0,0.00,0.00,0.00,0.00
2014-09-15 02:40:00,1,39768,0,0.00,0,2,1,0,35737,50000,4484,38177,0,0,0,0,0.00,0.00,0.00,0.00
2014-09-15 02:50:00,2,38845,0,0.00,2,2,0,2,26207,50000,9373,37174,0,0,0,0,0.00,0.00,0.00,0.00
2014-09-15 03:00:00,0,35360,0,0.00,0,2,1,0,23202,45656,6736,35327,0,0,0,0,0.00,0.00,0.00,0.00
2014-09-15 03:10:00,0,33202,0,0.00,0,0,0,0,20658,47482,9005,30729,0,0,0,0,0.00,0.00,0.00,0.00
2014-09-15 03:20:00,0,39769,0,0.00,0,0,0,0,25191,50000,8055,41480,0,0,0,0,0.00,0.00,0.00,0.00
2014-09-15 03:30:00,0,42252,0,0.00,0,0,0,0,32307,50000,5845,44121,0,0,0,0,0.00,0.00,0.00,0.00
2014-09-15 03:40:00,0,42441,0,0.00,0,2,1,0,29936,50000,6645,44074,0,0,0,0,0.00,0.00,0.00,0.00
2014-09-15 03:50:00,2,41473,0,0.00,2,2,0,2,29716,50000,6392,40476,0,0,0,0,0.00,0.00,0.00,0.00
2014-09-15 04:00:00,2,44870,0,0.00,2,2,0,2,35557,50000,5135,46426,0,0,0,0,0.00,0.00,0.00,0.00
2014-09-15 04:10:00,2,47003,0,0.00,2,2,0,2,41594,50000,3058,47360,0,0,0,0,0.00,0.00,0.00,0.00
2014-09-15 04:20:00,2,44905,0,0.00,2,2,0,2,38722,50000,3782,44584,0,0,0,0,0.00,0.00,0.00,0.00
2014-09-15 04:30:00,2,40234,0,0.00,2,2,0,2,31160,49883,5932,41178,0,0,0,0,0.00,0.00,0.00,0.00
2014-09-15 04:40:00,2,45076,0,0.00,2,2,0,2,35626,49563,3827,45251,0,0,0,0,0.00,0.00,0.00,0.00
2014-09-15 04:50:00,2,45380,0,0.00,2,2,0,2,33214,50000,5659,48485,0,0,0,0,0.00,0.00,0.00,0.00
2014-09-15 05:00:00,2,47393,0,0.00,2,2,0,2,43350,50000,2653,48483,0,0,0,0,0.00,0.00,0.00,0.00
2014-09-15 05:10:00,2,48669,0,0.00,2,2,0,2,46314,50000,1314,48836,0,0,0,0,0.00,0.00,0.00,0.00
2014-09-15 05:20:00,2,46171,0,0.00,2,2,0,2,38973,50000,4396,47853,0,0,0,0,0.00,0.00,0.00,0.00
2014-09-15 05:30:00,2,40567,0,0.00,2,2,0,2,33092,50000,4411,40544,0,0,0,0,0.00,0.00,0.00,0.00
2014-09-15 05:40:00,2,41864,0,0.00,2,2,0,2,34065,50000,4043,41950,0,0,0,0,0.00,0.00,0.00,0.00
2014-09-15 05:50:00,2,47544,0,0.00,2,2,0,2,42069,50000,2845,48320,0,0,0,0,0.00,0.00,0.00,0.00
2014-09-15 06:00:00,2,46027,0,0.00,2,2,0,2,39403,50000,3738,46612,0,0,0,0,0.00,0.00,0.00,0.00
2014-09-15 06:10:00,2,48862,0,0.00,2,2,0,2,45368,50000,1591,49596,0,0,0,0,0.00,0.00,0.00,0.00
2014-09-15 06:20:00,2,47834,0,0.00,2,2,0,2,42314,50000,2372,48356,0,0,0,0,0.00,0.00,0.00,0.00
2014-09-15 06:30:00,2,48254,0,0.00,2,2,0,2,42437,50000,2275,49336,0,0,0,0,0.00,0.00,0.00,0.00
2014-09-15 06:40:00,2,49188,0,0.00,2,2,0,2,45308,50000,1499,50000,0,0,0,0,0.00,0.00,0.00,0.00
2014-09-15 06:50:00,0,47991,0,0.00,0,2,1,0,44111,50000,2189,48704,0,0,0,0,0.00,0.00,0.00,0.00
2014-09-15 07:00:00,0,49264,0,0.00,0,0,0,0,46086,50000,1208,50000,0,0,0,0,0.00,0.00,0.00,0.00
2014-09-15 07:10:00,0,47442,0,0.00,0,0,0,0,39788,50000,3070,48602,0,0,0,0,0.00,0.00,0.00,0.00
2014-09-15 07:20:00,0,47544,0,0.00,0,0,0,0,43319,50000,2166,47827,0,0,0,0,0.00,0.00,0.00,0.00
2014-09-15 07:30:00,0,48344,0,0.00,0,0,0,0,42390,50000,2471,49978,0,0,0,0,0.00,0.00,0.00,0.00
2014-09-15 07:40:00,0,49317,0,0.00,0,0,0,0,44575,50000,1606,50000,0,0,0,0,0.00,0.00,0.00,0.00
2014-09-15 07:50:00,0,47327,0,0.00,0,0,0,0,41568,50000,3227,49369,0,0,0,0,0.00,0.00,0.00,0.00
2014-09-15 08:00:00,0,50000,0,0.00,0,0,0,0,50000,50000,0,50000,0,0,0,0,0.00,0.00,0.00,0.00
2014-09-15 08:10:00,0,50000,0,0.00,0,0,0,0,50000,50000,0,50000,0,0,0,0,0.00,0.00,0.00,0.00
2014-09-15 08:20:00,0,49784,0,0.00,0,0,0,0,47835,50000,650,50000,0,0,0,0,0.00,0.00,0.00,0.00
2014-09-15 08:30:00,0,48447,0,0.00,0,0,0,0,43080,50000,2423,50000,0,0,0,0,0.00,0.00,0.00,0.00
2014-09-15 08:40:00,0,49670,0,0.00,0,0,0,0,48202,50000,572,50000,0,0,0,0,0.00,0.00,0.00,0.00
2014-09-15 08:50:00,0,49551,0,0.00,0,0,0,0,45677,50000,1292,50000,0,0,0,0,0.00,0.00,0.00,0.00
2014-09-15 09:00:00,0,49901,0,0.00,0,0,0,0,49023,50000,293,50000,0,0,0,0,0.00,0.00,0.00,0.00
2014-09-15 09:10:00,0,49974,0,0.00,0,0,0,0,49744,50000,77,50000,0,0,0,0,0.00,0.00,0.00,0.00
2014-09-15 09:20:00,0,49980,0,0.00,0,0,0,0,49800,50000,60,50000,0,0,0,0,0.00,0.00,0.00,0.00
2014-09-15 09:30:00,0,49640,0,0.00,0,0,0,0,47597,50000,723,50000,0,0,0,0,0.00,0.00,0.00,0.00
2014-09-15 09:40:00,0,49875,0,0.00,0,0,0,0,49329,50000,218,50000,0,0,0,0,0.00,0.00,0.00,0.00
2014-09-15 09:50:00,0,50000,0,0.00,0,0,0,0,50000,50000,0,50000,0,0,0,0,0.00,0.00,0.00,0.00
2014-09-15 10:00:00,0,49974,0,0.00,0,0,0,0,49776,50000,67,50000,0,0,0,0,0.00,0.00,0.00,0.00
2014-09-15 10:10:00,0,50000,0,0.00,0,0,0,0,50000,50000,0,50000,0,0,0,0,0.00,0.00,0.00,0.00
2014-09-15 10:20:00,0,50000,0,0.00,0,0,0,0,50000,50000,0,50000,0,0,0,0,0.00,0.00,0.00,0.00
2014-09-15 10:30:00,0,49895,0,0.00,0,0,0,0,49021,50000,292,50000,0,0,0,0,0.00,0.00,0.00,0.00
2014-09-15 10:40:00,0,50000,0,0.00,0,0,0,0,50000,50000,0,50000,0,0,0,0,0.00,0.00,0.00,0.00
2014-09-15 10:50:00,0,49980,0,0.00,0,0,0,0,49801,50000,60,50000,0,0,0,0,0.00,0.00,0.00,0.00
2014-09-15 11:00:00,0,50000,0,0.00,0,0,0,0,50000,50000,0,50000,0,0,0,0,0.00,0.00,0.00,0.00
2014-09-15 11:10:00,0,50000,0,0.00,0,0,0,0,50000,50000,0,50000,0,0,0,0,0.00,0.00,0.00,0.00
2014-09-15 11:20:00,0,49906,0,0.00,0,0,0,0,49056,50000,283,50000,0,0,0,0,0.00,0.00,0.00,0.00
2014-09-15 11:30:00,0,49728,0,0.00,0,0,0,0,47959,50000,624,50000,0,0,0,0,0.00,0.00,0.00,0.00
2014-09-15 11:40:00,0,49641,0,0.00,0,0,0,0,46890,50000,928,50000,0,0,0,0,0.00,0.00,0.00,0.00
2014-09-15 11:50:00,0,50000,0,0.00,0,0,0,0,50000,50000,0,50000,0,0,0,0,0.00,0.00,0.00,0.00
2014-09-15 12:00:00,0,49920,0,0.00,0,0,0,0,49195,50000,242,50000,0,0,0,0,0.00,0.00,0.00,0.00
2014-09-15 12:10:00,0,49602,0,0.00,0,0,0,0,47025,50000,910,50000,0,0,0,0,0.00,0.00,0.00,0.00
2014-09-15 12:20:00,0,48719,0,0.00,0,2,1,0,45106,50000,1665,49358,0,0,0,0,0.00,0.00,0.00,0.00
2014-09-15 12:30:00,2,49680,0,0.00,2,2,0,2,47940,50000,672,50000,0,0,0,0,0.00,0.00,0.00,0.00
2014-09-15 12:40:00,2,49041,0,0.00,2,2,0,2,43755,50000,1919,50000,0,0,0,0,0.00,0.00,0.00,0.00
2014-09-15 12:50:00,2,48850,0,0.00,2,2,0,2,45113,50000,1891,50000,0,0,0,0,0.00,0.00,0.00,0.00
2014-09-15 13:00:00,2,48769,0,0.00,2,2,0,2,44563,50000,1737,49722,0,0,0,0,0.00,0.00,0.00,0.00
2014-09-15 13:10:00,2,49786,0,0.00,2,2,0,2,48307,50000,511,50000,0,0,0,0,0.00,0.00,0.00,0.00
2014-09-15 13:20:00,2,49291,0,0.00,2,2,0,2,45372,50000,1394,50000,0,0,0,0,0.00,0.00,0.00,0.00
2014-09-15 13:30:00,2,49889,0,0.00,2,2,0,2,48892,50000,332,50000,0,0,0,0,0.00,0.00,0.00,0.00
2014-09-15 13:40:00,2,47650,0,0.00,2,2,0,2,43998,50000,2057,47902,0,0,0,0,0.00,0.00,0.00,0.00
2014-09-15 13:50:00,2,45695,0,0.00,2,2,0,2,41029,48435,2300,45750,0,0,0,0,0.00,0.00,0.00,0.00
2014-09-15 14:00:00,2,46144,0,0.00,2,2,0,2,38757,50000,4537,48852,0,0,0,0,0.00,0.00,0.00,0.00
2014-09-15 14:10:00,2,47850,0,0.00,2,2,0,2,45017,50000,1453,48344,0,0,0,0,0.00,0.00,0.00,0.00
2014-09-15 14:20:00,2,50000,0,0.00,2,2,0,2,50000,50000,0,50000,0,0,0,0,0.00,0.00,0.00,0.00
2014-09-15 14:30:00,2,49113,0,0.00,2,2,0,2,47124,50000,1009,49527,0,0,0,0,0.00,0.00,0.00,0.00
2014-09-15 14:40:00,2,44109,0,0.00,2,2,0,2,37856,50000,4055,43962,0,0,0,0,0.00,0.00,0.00,0.00
2014-09-15 14:50:00,2,40994,0,0.00,2,2,0,2,21543,50000,11212,48568,0,0,0,0,0.00,0.00,0.00,0.00
2014-09-15 15:00:00,2,35946,0,0.00,2,2,0,2,20903,45432,8280,38904,0,0,0,0,0.00,0.00,0.00,0.00
2014-09-15 15:10:00,2,43122,0,0.00,2,2,0,2,39292,47978,3037,42596,0,0,0,0,0.00,0.00,0.00,0.00
2014-09-15 15:20:00,2,38994,0,0.00,2,2,0,2,33862,44283,3312,39094,0,0,0,0,0.00,0.00,0.00,0.00
2014-09-15 15:30:00,2,34917,0,0.00,2,2,0,2,32622,40931,2316,34103,0,0,0,0,0.00,0.00,0.00,0.00
2014-09-15 15:40:00,2,33997,0,0.00,2,2,0,2,27865,43916,5089,31420,0,0,0,0,0.00,0.00,0.00,0.00
2014-09-15 15:50:00,2,26762,0,0.00,2,2,0,2,20792,32530,3119,27241,0,0,0,0,0.00,0.00,0.00,0.00
2014-09-15 16:00:00,2,30821,0,0.00,2,2,0,2,20394,46011,8666,29630,0,0,0,0,0.00,0.00,0.00,0.00
2014-09-15 16:10:00,2,29376,0,0.00,2,2,0,2,24332,34138,3282,29405,0,0,0,0,0.00,0.00,0.00,0.00
2014-09-15 16:20:00,2,30160,0,0.00,2,2,0,2,23379,35668,3590,29947,0,0,0,0,0.00,0.00,0.00,0.00
2014-09-15 16:30:00,2,30191,0,0.00,2,2,0,2,27868,33413,1632,30011,0,0,0,0,0.00,0.00,0.00,0.00
2014-09-15 16:40:00,2,30234,0,0.00,2,2,0,2,23834,43961,6444,26762,0,0,0,0,0.00,0.00,0.00,0.00
2014-09-15 16:50:00,2,37568,0,0.00,2,2,0,2,31491,47231,4282,37831,0,0,0,0,0.00,0.00,0.00,0.00
2014-09-15 17:00:00,2,42319,0,0.00,2,2,0,2,40549,44695,1525,42366,0,0,0,0,0.00,0.00,0.00,0.00
2014-09-15 17:10:00,2,45226,0,0.00,2,2,0,2,37326,50000,4171,45842,0,0,0,0,0.00,0.00,0.00,0.00
2014-09-15 17:20:00,2,48046,0,0.00,2,2,0,2,44144,50000,1667,48346,0,0,0,0,0.00,0.00,0.00,0.00
2014-09-15 17:30:00,2,48808,0,0.00,2,2,0,2,44909,50000,1636,49458,0,0,0,0,0.00,0.00,0.00,0.00
2014-09-15 17:40:00,2,45288,0,0.00,2,2,0,2,37020,50000,4426,45608,0,0,0,0,0.00,0.00,0.00,0.00
2014-09-15 17:50:00,2,37254,0,0.00,2,2,0,2,30613,43707,3989,37780,0,0,0,0,0.00,0.00,0.00,0.00
2014-09-15 18:00:00,2,25991,0,0.00,2,2,0,2,22470,33298,2915,25416,0,0,0,0,0.00,0.00,0.00,0.00
2014-09-15 18:10:00,2,26360,0,0.00,2,2,0,2,21007,30045,2586,26446,0,0,0,0,0.00,0.00,0.00,0.00
2014-09-15 18:20:00,2,43299,0,0.00,2,2,0,2,35514,49296,3954,43586,0,0,0,0,0.00,0.00,0.00,0.00
2014-09-15 18:30:00,2,43167,0,0.00,2,2,0,2,31211,50000,7113,47024,0,0,0,0,0.00,0.00,0.00,0.00
2014-09-15 18:40:00,2,40634,0,0.00,2,2,0,2,31144,48093,5740,41014,0,0,0,0,0.00,0.00,0.00,0.00
2014-09-15 18:50:00,2,28464,0,0.00,2,2,0,2,25487,32055,2075,27976,0,0,0,0,0.00,0.00,0.00,0.00
2014-09-15 19:00:00,2,30516,0,0.00,2,2,0,2,24735,37914,4220,29158,0,0,0,0,0.00,0.00,0.00,0.00
2014-09-15 19:10:00,2,32631,0,0.00,2,2,0,2,23016,41656,6133,34450,0,0,0,0,0.00,0.00,0.00,0.00
2014-09-15 19:20:00,2,41794,0,0.00,2,2,0,2,35631,49335,3861,41694,0,0,0,0,0.00,0.00,0.00,0.00
2014-09-15 19:30:00,2,40599,0,0.00,2,2,0,2,35412,47003,3265,39960,0,0,0,0,0.00,0.00,0.00,0.00
2014-09-15 19:40:00,2,43203,0,0.00,2,2,0,2,32345,49239,5328,44202,0,0,0,0,0.00,0.00,0.00,0.00
2014-09-15 19:50:00,2,46378,0,0.00,2,2,0,2,40390,50000,3214,46771,0,0,0,0,0.00,0.00,0.00,0.00
2014-09-15 20:00:00,2,44467,0,0.00,2,2,0,2,37620,48500,3463,45184,0,0,0,0,0.00,0.00,0.00,0.00
2014-09-15 20:10:00,2,49258,0,0.00,2,2,0,2,45408,50000,1410,50000,0,0,0,0,0.00,0.00,0.00,0.00
2014-09-15 20:20:00,2,47750,0,0.00,2,2,0,2,38660,50000,3649,49802,0,0,0,0,0.00,0.00,0.00,0.00
2014-09-15 20:30:00,2,47696,0,0.00,2,2,0,2,40096,50000,3656,49877,0,0,0,0,0.00,0.00,0.00,0.00
2014-09-15 20:40:00,2,47977,0,0.00,2,2,0,2,44850,50000,1428,47948,0,0,0,0,0.00,0.00,0.00,0.00
2014-09-15 20:50:00,2,47814,0,0.00,2,2,0,2,45721,50000,1682,47050,0,0,0,0,0.00,0.00,0.00,0.00
2014-09-15 21:00:00,2,46591,0,0.00,2,2,0,2,38267,50000,4026,48108,0,0,0,0,0.00,0.00,0.00,0.00
2014-09-15 21:10:00,2,43519,0,0.00,2,2,0,2,38155,49246,3578,43942,0,0,0,0,0.00,0.00,0.00,0.00
2014-09-15 21:20:00,2,46477,0,0.00,2,2,0,2,39274,50000,3158,47083,0,0,0,0,0.00,0.00,0.00,0.00
2014-09-15 21:30:00,2,41439,0,0.00,2,2,0,2,36385,48177,3520,41112,0,0,0,0,0.00,0.00,0.00,0.00
2014-09-15 21:40:00,2,42902,0,0.00,2,2,0,2,31510,50000,4910,43144,0,0,0,0,0.00,0.00,0.00,0.00
2014-09-15 21:50:00,2,48938,0,0.00,2,2,0,2,46964,50000,1158,49436,0,0,0,0,0.00,0.00,0.00,0.00
2014-09-15 22:00:00,2,45522,0,0.00,2,2,0,2,40202,50000,2839,45802,0,0,0,0,0.00,0.00,0.00,0.00
2014-09-15 22:10:00,2,44458,0,0.00,2,2,0,2,39067,50000,3637,44582,0,0,0,0,0.00,0.00,0.00,0.00
2014-09-15 22:20:00,2,43376,0,0.00,2,2,0,2,32898,47888,4966,46007,0,0,0,0,0.00,0.00,0.00,0.00
2014-09-15 22:30:00,2,47231,0,0.00,2,2,0,2,40961,50000,3036,48131,0,0,0,0,0.00,0.00,0.00,0.00
2014-09-15 22:40:00,2,36022,0,0.00,2,2,0,2,30028,43302,4279,35614,0,0,0,0,0.00,0.00,0.00,0.00
2014-09-15 22:50:00,2,42580,0,0.00,2,2,0,2,35958,46879,3489,42575,0,0,0,0,0.00,0.00,0.00,0.00
2014-09-15 23:00:00,2,42736,0,0.00,2,2,0,2,36174,49387,3944,42554,0,0,0,0,0.00,0.00,0.00,0.00
2014-09-15 23:10:00,1,44710,0,0.00,0,2,1,0,36600,50000,4466,45774,0,0,0,0,0.00,0.00,0.00,0.00
2014-09-15 23:20:00,0,42349,0,0.00,0,0,0,0,34720,50000,5825,43589,0,0,0,0,0.00,0.00,0.00,0.00
2014-09-15 23:30:00,0,47754,0,0.00,0,0,0,0,42527,50000,2589,48642,0,0,0,0,0.00,0.00,0.00,0.00
2014-09-15 23:40:00,0,43237,0,0.00,0,0,0,0,33025,50000,7274,47109,0,0,0,0,0.00,0.00,0.00,0.00
2014-09-15 23:50:00,1,44170,0,0.00,0,2,1,2,39366,50000,3006,44574,0,0,0,0,0.00,0.00,0.00,0.00
